Regional Weather Roundup
Issued by NWS Boston, MA

Current Version | Previous Version | Text Only | Print | Product List | Glossary Off
Versions: 1 2 3 4 5 6 7 8 9 10 11 12 13 14 15 16 17 18 19 20 21 22 23 24 25 26 27 28 29 30 31 32 33 34 35 36 37 38 39 40 41 42 43 44 45 46 47 48 49 50
000 ASUS41 KBOX 260710 RWRBOX REGIONAL WEATHER ROUNDUP NATIONAL WEATHER SERVICE TAUNTON MA 300 AM EDT MON SEP 26 2016 NOTE: "FAIR" INDICATES FEW OR NO CLOUDS BELOW 12,000 FEET WITH NO SIGNIFICANT WEATHER AND/OR OBSTRUCTIONS TO VISIBILITY. MAZALL-260800- EASTERN MASSACHUSETTS CITY SKY/WX TMP DP RH WIND PRES REMARKS BOSTON CLEAR 51 38 60 NW7 30.20F BEVERLY CLEAR 40 38 93 CALM 30.19F LAWRENCE PTCLDY 42 39 89 S3 30.22F BEDFORD CLEAR 36 31 82 CALM 30.20S BLUE HILL NOT AVBL NORWOOD CLEAR 31 30 96 CALM 30.20F FOG MARSHFIELD CLEAR 54 41 62 NW3 30.19S PLYMOUTH CLEAR 44 39 82 CALM 30.20S TAUNTON PTCLDY 34 33 96 CALM 30.20S NEW BEDFORD CLEAR 39 36 89 CALM 30.19S $$ MAZALL-260800- CAPE COD AND THE ISLANDS CITY SKY/WX TMP DP RH WIND PRES REMARKS FALMOUTH N/A 43 39 87 CALM N/A HYANNIS PTCLDY 53 41 63 N6 30.17S CHATHAM PTCLDY 50 42 74 N3 30.18F PROVINCETOWN CLEAR 55 40 56 N7 30.19S NANTUCKET PTCLDY 49 43 80 N8 30.17S MARTHAS VNYRD CLEAR 39 37 92 N7 30.18S $$ MAZALL-260800- CENTRAL AND WESTERN MASSACHUSETTS CITY SKY/WX TMP DP RH WIND PRES REMARKS WORCESTER CLEAR 48 33 56 N6 30.20S FITCHBURG CLEAR 43 37 79 N5 30.22S ORANGE CLEAR 35 35 100 CALM 30.23S SPRINGFIELD CLEAR 35 34 95 E2 30.21S WESTFIELD CLEAR 37 36 96 CALM 30.22S NORTH ADAMS CLEAR 36 34 92 CALM 30.23S PITTSFIELD CLEAR 35 34 96 CALM 30.20F $$ RIZALL-260800- RHODE ISLAND CITY SKY/WX TMP DP RH WIND PRES REMARKS PROVIDENCE CLEAR 45 37 73 NW5 30.21S NEWPORT CLEAR 49 38 65 N6 30.19F BLOCK ISLAND CLEAR 55 43 63 N7 30.19F SMITHFIELD CLEAR 40 35 83 CALM 30.20F WESTERLY CLEAR 42 37 82 CALM 30.21S $$ CTZALL-260800- CONNECTICUT CITY SKY/WX TMP DP RH WIND PRES REMARKS BRADLEY INTL CLEAR 40 37 89 CALM 30.22F HARTFORD CLEAR 43 43 100 CALM 30.22F BRIDGEPORT CLEAR 50 42 74 N7 30.20S DANBURY CLEAR 38 37 97 CALM 30.21F GROTON CLEAR 47 41 80 N6 30.20F NEW HAVEN CLEAR 46 39 76 N6 30.20F CHESTER FAIR 46 39 76 N5 30.21S MERIDEN CLEAR 44 39 82 CALM 30.21F WILLIMANTIC CLEAR 39 38 96 CALM 30.23F OXFORD N/A 48 36 61 NE5 30.21F $$ MEZ002-015-021-024-NHZ003-005-008-011-012-014-VTZ005-008-260800- NORTHERN NEW ENGLAND CITY SKY/WX TMP DP RH WIND PRES REMARKS PORTLAND ME CLEAR 42 35 76 W6 30.19F BANGOR ME CLEAR 41 37 86 W3 30.14S CONCORD NH PTCLDY 38 34 85 CALM 30.21S MANCHESTER NH PTCLDY 44 37 76 CALM 30.19F NASHUA NH PTCLDY 38 36 92 CALM 30.21F PORTSMOUTH NH CLEAR 41 38 89 CALM 30.18F JAFFREY NH MOCLDY 36 33 89 CALM 30.22F FOG KEENE NH CLEAR 34 34 100 S3 30.23F BURLINGTON VT PTCLDY 40 36 86 CALM 30.20F MT. WASHINGTON PTCLDY 27 21 80 NW31 N/A WCI 10 $$ NYZ052-076-260800- EASTERN NEW YORK CITY SKY/WX TMP DP RH WIND PRES REMARKS ALBANY PTCLDY 42 39 89 CALM 30.22S NEW YORK CITY PTCLDY 62 44 51 NE5 30.17F $$ ANZALL-260800- MARINE OBSERVATIONS STATION/POSITION TIME TEMP WIND PRES VSBY WAVE AIR SEA DIR/SP/G HT/PER (UTC) (F) (DEG/KT/KT) (MB) (MI) (FT/S) BOSTON BUOY 0650 57 64 360/ 12/ 14 1021.7F 4/ 6 BUZZARDS BAY 0600 57 360/ 14/ 16 1022.6S NANTUCKET SOUND 0650 60 65 10/ 14/ 16 1021.4F 1/ 3 MASS BAY-STELLWA 0604 58 61 350/ 14/ 16 1022.0R 1 7/8 4/ 6 ISLE OF SHOALS 0600 53 320/ 10/ 11 1022.4R S OF BLOCK IS 0555 66 N/A 2/10 $$ ......................KEY......................... SKY/WX - SKY CONDITION/PRESENT WEATHER TMP - TEMPERATURE IN FAHRENHEIT DWPT - DEWPOINT IN FAHRENHEIT RH - RELATIVE HUMIDITY IN PERCENT WIND - DIRECTION AND SPEED IN MPH PRES - MEAN SEA LEVEL PRESSURE IN INCHES OF HG WCI - WIND CHILL INDEX VSB - VISIBILITY IN MILES HX - HEAT INDEX TC - TEMPERATURE IN CELSIUS VRB - VARIABLE WIND DIRECTION N/A - NOT AVAILABLE

USA.gov is the U.S. government's official web portal to all federal, state and local government web resources and services.